Regional Weather Roundup
Issued by NWS Raleigh/Durham, NC

Home | Current Version | Previous Version | Text Only | Print | Product List | Glossary On
Versions: 1 2 3 4 5 6 7 8 9 10 11 12 13 14 15 16 17 18 19 20 21 22 23 24 25 26 27
000
ASUS42 KRAH 282210
RWRRAH
NORTH CAROLINA WEATHER ROUNDUP
NATIONAL WEATHER SERVICE RALEIGH NC
600 PM EDT TUE MAR 28 2017

NOTE: "FAIR" INDICATES FEW OR NO CLOUDS BELOW 12,000 FEET WITH NO
SIGNIFICANT WEATHER AND/OR OBSTRUCTIONS TO VISIBILITY.

NCZ001-053-055-056-065-067-282300-
WESTERN NORTH CAROLINA

CITY           SKY/WX    TMP DP  RH WIND       PRES   REMARKS
ASHEVILLE      SUNNY     71  47  42 N12G18    29.96R
JEFFERSON      CLOUDY    57  48  73 NW8       30.00R
MORGANTON      SUNNY     74  47  38 NW9       29.97S
HICKORY        MOSUNNY   74  47  38 NW10G17   29.91S
RUTHERFORDTON  MOSUNNY   78  49  36 NW6       29.91S
MOUNT AIRY     MOSUNNY   70  52  52 NW9G17    29.95R
BOONE          MOSUNNY   58  47  65 NW12G18   30.01R
$$

NCZ021-022-025-041-071-084-088-282300-
CENTRAL NORTH CAROLINA

CITY           SKY/WX    TMP DP  RH WIND       PRES   REMARKS
CHARLOTTE      PTSUNNY   79  51  37 N13       29.89S
GREENSBORO     PTSUNNY   75  50  41 NW17      29.88R
WINSTON-SALEM  PTSUNNY   74  46  36 NW14G20   29.91R
RALEIGH-DURHAM PTSUNNY   75  52  44 VRB5      29.86R
FORT BRAGG     CLOUDY    75  62  64 CALM      29.85S
FAYETTEVILLE   CLOUDY    81  59  47 N6        29.85R
BURLINGTON     PTSUNNY   78  51  38 NW10      29.86S
LAURINBURG     SUNNY     82  57  42 N10       29.85S
$$

NCZ011-015-027-028-043-044-047-080-103-282300-
NORTHEASTERN NORTH CAROLINA

CITY           SKY/WX    TMP DP  RH WIND       PRES   REMARKS
ROCKY MT-WILSO MOSUNNY   76  57  51 W10       29.85R
GREENVILLE     PTSUNNY   73  61  64 SW7       29.88S
WASHINGTON     CLOUDY    73  62  68 SW3       29.86S
ELIZABETH CITY MOSUNNY   69  59  70 SW10      29.86R
MANTEO         MOSUNNY   65  60  81 SW15      29.87S
CAPE HATTERAS  PTSUNNY   69  62  78 S5        29.89R HAZE
$$

NCZ078-087-090-091-093-098-101-282300-
SOUTHEASTERN NORTH CAROLINA

CITY           SKY/WX    TMP DP  RH WIND       PRES   REMARKS
LUMBERTON      PTSUNNY   81  58  45 W16       29.83F
GOLDSBORO      CLOUDY    71  62  74 N5        29.85R
KINSTON        HVY RAIN  68  61  77 N16       29.86S
KENANSVILLE    CLOUDY    73  61  64 N8G17     29.86R
NEW BERN       CLOUDY    67  64  90 S7        29.87F
CHERRY POINT   NOT AVBL
BEAUFORT       CLOUDY    69  65  86 SW14      29.88R
JACKSONVILLE   MOSUNNY   68  66  93 S13       29.84F
WILMINGTON     SUNNY     76  60  57 S14       29.85F
$$





USA.gov is the U.S. government's official web portal to all federal, state and local government web resources and services.